GW6339 Weather Reports


time (UTC)temp
F
wind
direction
speed
knots
gust
knots
rain 1hr
in
rain 24hr
in
rain mn
in
humidity
%
barometer
mb
20260906235227 96 297 0.0 2.6 0.00 0.00 0.00 41 1009.5
20260906235127 96 60 1.7 3.5 0.00 0.00 0.00 41 1009.5
20260906235026 96 245 2.6 3.5 0.00 0.00 0.00 41 1009.3
20260906234926 96 289 0.9 3.5 0.00 0.00 0.00 41 1009.6
20260906234836 96 77 1.7 1.7 0.00 0.00 0.00 41 1009.4
20260906234727 96 98 0.9 1.7 0.00 0.00 0.00 41 1009.6
20260906234626 96 356 1.7 1.7 0.00 0.00 0.00 40 1009.3
20260906234426 96 144 0.0 4.3 0.00 0.00 0.00 40 1009.3
20260906234328 96 83 3.5 5.2 0.00 0.00 0.00 40 1009.7
20260906234226 96 151 1.7 5.2 0.00 0.00 0.00 40 1009.6
20260906234126 96 48 4.3 3.5 0.00 0.00 0.00 40 1009.2
20260906234026 96 45 0.0 3.5 0.00 0.00 0.00 40 1009.7
20260906233927 96 277 1.7 2.6 0.00 0.00 0.00 40 1009.3
20260906233727 97 186 0.0 1.7 0.00 0.00 0.00 40 1009.2
20260906233636 97 302 0.9 2.6 0.00 0.00 0.00 39 1009.5
20260906233527 97 86 0.9 3.5 0.00 0.00 0.00 39 1009.6
20260906233426 97 357 1.7 3.5 0.00 0.00 0.00 40 1009.7
20260906233327 97 83 0.9 2.6 0.00 0.00 0.00 40 1009.4
20260906233226 97 45 1.7 2.6 0.00 0.00 0.00 40 1009.3
20260906233126 97 229 1.7 2.6 0.00 0.00 0.00 40 1009.6
20260906232726 97 255 0.0 3.5 0.00 0.00 0.00 40 1009.5
20260906232627 97 37 1.7 3.5 0.00 0.00 0.00 40 1009.5
20260906232526 97 350 1.7 3.5 0.00 0.00 0.00 40 1009.5
20260906232427 98 87 3.5 2.6 0.00 0.00 0.00 40 1009.6
20260906232337 98 255 0.0 2.6 0.00 0.00 0.00 40 1009.6
20260906232227 98 237 2.6 3.5 0.00 0.00 0.00 40 1009.6
20260906232126 98 269 0.0 3.5 0.00 0.00 0.00 39 1009.7
20260906232026 98 0 0.9 3.5 0.00 0.00 0.00 39 1009.4
20260906231926 98 131 0.0 3.5 0.00 0.00 0.00 39 1009.5
20260906231826 98 221 1.7 2.6 0.00 0.00 0.00 39 1009.5
20260906231726 98 226 2.6 2.6 0.00 0.00 0.00 39 1009.6
20260906231626 98 165 1.7 2.6 0.00 0.00 0.00 38 1009.8
20260906231526 98 244 1.7 3.5 0.00 0.00 0.00 38 1009.6
20260906231436 98 209 0.9 3.5 0.00 0.00 0.00 38 1009.4
20260906231326 98 213 2.6 1.7 0.00 0.00 0.00 39 1009.6
20260906231126 98 141 0.9 3.5 0.00 0.00 0.00 38 1009.7
20260906231026 98 118 0.0 3.5 0.00 0.00 0.00 38 1009.7
20260906230926 98 253 1.7 1.7 0.00 0.00 0.00 38 1009.7
20260906230827 98 288 0.9 1.7 0.00 0.00 0.00 39 1009.4
20260906230526 99 294 0.0 1.7 0.00 0.00 0.00 39 1009.4
20260906230426 99 177 1.7 2.6 0.00 0.00 0.00 39 1009.4
20260906230326 99 246 0.9 3.5 0.00 0.00 0.00 38 1009.5
20260906230225 99 86 1.7 3.5 0.00 0.00 0.00 38 1009.5
20260906230126 99 138 1.7 3.5 0.00 0.00 0.00 38 1009.4
20260906230035 99 111 3.5 2.6 0.00 0.00 0.00 38 1009.5
20260906225926 100 164 1.7 1.7 0.00 0.00 0.00 38 1009.5
20260906225636 100 260 0.0 2.6 0.00 0.00 0.00 37 1009.5
20260906225527 100 277 1.7 2.6 0.00 0.00 0.00 38 1009.6
20260906225426 100 222 2.6 2.6 0.00 0.00 0.00 38 1009.6
20260906225326 100 242 1.7 2.6 0.00 0.00 0.00 37 1009.3
20260906225226 100 232 0.9 1.7 0.00 0.00 0.00 38 1009.3
20260906225136 100 219 0.0 2.6 0.00 0.00 0.00 38 1009.4
20260906225025 100 278 0.9 2.6 0.00 0.00 0.00 38 1009.3
20260906224925 99 240 0.9 2.6 0.00 0.00 0.00 38 1009.4
20260906224826 99 263 1.7 1.7 0.00 0.00 0.00 38 1009.6
20260906224526 99 358 0.0 1.7 0.00 0.00 0.00 39 1009.5
20260906224425 99 228 1.7 2.6 0.00 0.00 0.00 39 1009.4
20260906224325 99 288 0.9 2.6 0.00 0.00 0.00 39 1009.5
20260906224225 99 297 0.0 3.5 0.00 0.00 0.00 39 1009.5
20260906224126 99 143 0.9 3.5 0.00 0.00 0.00 39 1009.7
20260906224026 99 166 2.6 4.3 0.00 0.00 0.00 39 1009.5
20260906223936 99 98 3.5 4.3 0.00 0.00 0.00 39 1010.0
20260906223836 99 74 0.9 5.2 0.00 0.00 0.00 38 1009.9
20260906223726 99 162 0.0 5.2 0.00 0.00 0.00 38 1009.5
20260906223636 99 217 1.7 5.2 0.00 0.00 0.00 38 1009.5
20260906223525 99 251 0.9 5.2 0.00 0.00 0.00 38 1009.3
20260906223426 99 173 1.7 2.6 0.00 0.00 0.00 38 1009.7
20260906223326 99 273 2.6 2.6 0.00 0.00 0.00 38 1009.4
20260906223226 99 263 1.7 2.6 0.00 0.00 0.00 38 1009.4
20260906223127 99 172 0.0 3.5 0.00 0.00 0.00 38 1009.5
20260906222925 99 96 2.6 3.5 0.00 0.00 0.00 38 1009.4
20260906222825 99 58 1.7 2.6 0.00 0.00 0.00 38 1009.5
20260906222726 99 106 1.7 2.6 0.00 0.00 0.00 38 1009.4
20260906222626 99 120 1.7 2.6 0.00 0.00 0.00 38 1009.4
20260906222526 99 258 0.0 2.6 0.00 0.00 0.00 38 1009.5
20260906222426 99 213 2.6 3.5 0.00 0.00 0.00 38 1009.4
20260906222326 99 302 0.9 3.5 0.00 0.00 0.00 38 1009.8
20260906222227 99 41 2.6 2.6 0.00 0.00 0.00 38 1009.7
20260906222026 99 198 0.0 2.6 0.00 0.00 0.00 37 1009.6
20260906221926 99 285 0.9 2.6 0.00 0.00 0.00 37 1009.7
20260906221827 99 62 1.7 4.3 0.00 0.00 0.00 38 1009.5
20260906221736 99 147 1.7 4.3 0.00 0.00 0.00 38 1009.6
20260906221626 99 112 3.5 3.5 0.00 0.00 0.00 37 1009.6
20260906221526 99 181 1.7 5.2 0.00 0.00 0.00 37 1009.6
20260906221436 99 134 1.7 5.2 0.00 0.00 0.00 37 1009.5
20260906221336 99 124 0.0 3.5 0.00 0.00 0.00 37 1009.7
20260906221226 99 56 1.7 3.5 0.00 0.00 0.00 37 1009.4
20260906221126 99 149 2.6 4.3 0.00 0.00 0.00 38 1009.3
20260906221026 99 228 1.7 4.3 0.00 0.00 0.00 37 1009.6
20260906220926 99 230 2.6 4.3 0.00 0.00 0.00 38 1009.3
20260906220826 99 247 1.7 3.5 0.00 0.00 0.00 38 1009.7
20260906220726 99 159 0.9 3.5 0.00 0.00 0.00 38 1009.6
20260906220626 99 222 2.6 3.5 0.00 0.00 0.00 38 1009.5
20260906220527 99 237 1.7 2.6 0.00 0.00 0.00 38 1009.5
20260906220426 99 271 0.0 2.6 0.00 0.00 0.00 39 1009.6
20260906220326 99 221 0.9 2.6 0.00 0.00 0.00 39 1009.5
20260906220236 99 187 1.7 2.6 0.00 0.00 0.00 39 1009.7
20260906220136 99 351 0.0 2.6 0.00 0.00 0.00 39 1009.5
20260906220026 99 128 1.7 3.5 0.00 0.00 0.00 38 1009.5
20260906215926 99 318 0.9 4.3 0.00 0.00 0.00 38 1009.6
20260906215826 99 318 0.0 3.5 0.00 0.00 0.00 38 1009.6
20260906215736 99 99 3.5 2.6 0.00 0.00 0.00 38 1009.7
20260906215625 99 225 2.6 3.5 0.00 0.00 0.00 38 1009.6
20260906215526 99 175 1.7 3.5 0.00 0.00 0.00 38 1009.5
20260906215426 99 7 0.9 3.5 0.00 0.00 0.00 38 1009.5
20260906215325 99 212 2.6 4.3 0.00 0.00 0.00 38 1009.5
20260906215226 99 85 2.6 4.3 0.00 0.00 0.00 38 1009.7
20260906215135 99 56 0.0 3.5 0.00 0.00 0.00 37 1009.4
20260906215026 99 194 1.7 2.6 0.00 0.00 0.00 38 1009.8
20260906214925 99 140 1.7 4.3 0.00 0.00 0.00 38 1009.6
20260906214825 99 133 1.7 4.3 0.00 0.00 0.00 38 1009.6
20260906214725 99 268 0.9 3.5 0.00 0.00 0.00 38 1009.6
20260906214626 99 72 3.5 2.6 0.00 0.00 0.00 38 1009.5
20260906214525 99 110 1.7 2.6 0.00 0.00 0.00 37 1009.6
20260906214426 99 286 0.0 2.6 0.00 0.00 0.00 37 1009.5
20260906214326 99 260 0.9 2.6 0.00 0.00 0.00 38 1009.5
20260906214226 99 234 1.7 1.7 0.00 0.00 0.00 38 1009.6
20260906214126 99 334 0.9 3.5 0.00 0.00 0.00 37 1009.7
20260906214035 99 43 1.7 3.5 0.00 0.00 0.00 37 1009.8
20260906213935 99 314 1.7 3.5 0.00 0.00 0.00 37 1009.9
20260906213836 99 207 1.7 3.5 0.00 0.00 0.00 37 1009.9
20260906213725 99 136 0.9 5.2 0.00 0.00 0.00 37 1009.8
20260906213627 100 108 1.7 5.2 0.00 0.00 0.00 36 1009.6
20260906213526 100 66 3.5 4.3 0.00 0.00 0.00 36 1009.6
20260906213426 100 333 0.9 4.3 0.00 0.00 0.00 37 1009.8
20260906213326 100 111 4.3 6.1 0.00 0.00 0.00 37 1009.8
20260906213126 100 310 1.7 2.6 0.00 0.00 0.00 37 1009.8
20260906213025 100 251 0.9 3.5 0.00 0.00 0.00 38 1009.7
20260906212627 99 229 0.0 1.7 0.00 0.00 0.00 38 1009.7
20260906212527 99 206 1.7 2.6 0.00 0.00 0.00 39 1009.7
20260906212426 99 123 0.0 2.6 0.00 0.00 0.00 39 1009.8
20260906212336 99 284 1.7 5.2 0.00 0.00 0.00 38 1009.9
20260906212227 99 273 0.9 5.2 0.00 0.00 0.00 38 1009.8
20260906212136 99 127 2.6 4.3 0.00 0.00 0.00 38 1009.9
20260906212026 99 43 1.7 4.3 0.00 0.00 0.00 37 1009.7
20260906211936 99 35 2.6 4.3 0.00 0.00 0.00 37 1009.8
20260906211826 99 100 1.7 4.3 0.00 0.00 0.00 37 1009.9
20260906211627 99 160 1.7 9.6 0.00 0.00 0.00 37 1009.8
20260906211536 99 96 4.3 4.3 0.00 0.00 0.00 38 1009.9
20260906211427 99 69 2.6 2.6 0.00 0.00 0.00 38 1009.8
20260906211226 100 42 0.9 4.3 0.00 0.00 0.00 37 1010.1
20260906211037 99 16 0.9 6.1 0.00 0.00 0.00 37 1010.3
20260906210926 99 355 2.6 5.2 0.00 0.00 0.00 37 1010.0
20260906210826 99 214 1.7 5.2 0.00 0.00 0.00 37 1010.1
20260906210726 99 46 1.7 3.5 0.00 0.00 0.00 38 1010.2
20260906210626 99 94 3.5 4.3 0.00 0.00 0.00 38 1010.2
20260906210526 99 146 0.0 4.3 0.00 0.00 0.00 38 1010.1
20260906210426 99 135 1.7 3.5 0.00 0.00 0.00 38 1010.1
20260906210325 99 180 1.7 3.5 0.00 0.00 0.00 38 1010.1
20260906210225 99 111 1.7 3.5 0.00 0.00 0.00 38 1010.2
20260906210126 99 122 0.0 5.2 0.00 0.00 0.00 38 1010.2
20260906205925 99 8 1.7 2.6 0.00 0.00 0.00 38 1010.2
20260906205826 99 229 1.7 2.6 0.00 0.00 0.00 37 1010.3
20260906205525 99 208 0.0 4.3 0.00 0.00 0.00 37 1010.4
20260906205426 99 226 1.7 5.2 0.00 0.00 0.00 37 1010.3
20260906205326 99 319 0.0 5.2 0.00 0.00 0.00 37 1010.3
20260906205225 99 157 1.7 7.0 0.00 0.00 0.00 38 1010.4
20260906205125 99 197 1.7 3.5 0.00 0.00 0.00 38 1010.4
20260906205025 99 94 2.6 2.6 0.00 0.00 0.00 38 1010.5
20260906204926 99 33 0.9 2.6 0.00 0.00 0.00 39 1010.3
20260906204725 99 323 1.7 3.5 0.00 0.00 0.00 39 1010.3
20260906204636 99 241 0.0 4.3 0.00 0.00 0.00 39 1010.4
20260906204525 99 239 0.9 4.3 0.00 0.00 0.00 39 1010.5
20260906204425 99 96 2.6 3.5 0.00 0.00 0.00 39 1010.6
20260906204336 99 299 0.9 4.3 0.00 0.00 0.00 39 1010.7
20260906204226 99 162 0.9 4.3 0.00 0.00 0.00 39 1010.7
20260906204128 99 171 2.6 5.2 0.00 0.00 0.00 39 1010.4
20260906204025 99 155 0.9 5.2 0.00 0.00 0.00 39 1010.6
20260906203926 99 201 1.7 4.3 0.00 0.00 0.00 39 1010.5
20260906203825 99 115 0.0 4.3 0.00 0.00 0.00 38 1010.6
20260906203726 100 169 1.7 3.5 0.00 0.00 0.00 38 1010.6
20260906203625 100 211 1.7 2.6 0.00 0.00 0.00 38 1010.5
20260906203325 100 229 0.9 2.6 0.00 0.00 0.00 38 1010.4
20260906203226 100 349 1.7 2.6 0.00 0.00 0.00 39 1010.5
20260906203135 99 288 0.9 1.7 0.00 0.00 0.00 39 1010.5
20260906203025 99 321 1.7 3.5 0.00 0.00 0.00 38 1010.3
20260906202926 100 317 0.9 4.3 0.00 0.00 0.00 38 1010.6
20260906202825 100 225 1.7 4.3 0.00 0.00 0.00 38 1010.6
20260906202736 99 153 4.3 3.5 0.00 0.00 0.00 39 1010.7
20260906202625 99 210 1.7 2.6 0.00 0.00 0.00 39 1010.8
20260906202526 99 248 0.0 3.5 0.00 0.00 0.00 39 1011.0
20260906202426 99 261 0.9 3.5 0.00 0.00 0.00 39 1010.9
20260906202326 99 330 1.7 3.5 0.00 0.00 0.00 39 1010.8
20260906202226 99 195 1.7 6.1 0.00 0.00 0.00 39 1010.8
20260906202125 99 241 0.0 6.1 0.00 0.00 0.00 39 1011.0
20260906202025 99 125 3.5 6.1 0.00 0.00 0.00 39 1010.8
20260906201926 99 107 2.6 4.3 0.00 0.00 0.00 39 1010.9
20260906201826 99 117 1.7 2.6 0.00 0.00 0.00 39 1010.9
20260906201726 99 188 0.9 3.5 0.00 0.00 0.00 40 1010.9
20260906201626 98 272 0.0 3.5 0.00 0.00 0.00 40 1011.0
20260906201526 98 237 1.7 3.5 0.00 0.00 0.00 41 1010.6
20260906201336 98 163 0.9 3.5 0.00 0.00 0.00 40 1010.9
20260906201226 98 351 3.5 2.6 0.00 0.00 0.00 41 1010.8
20260906201026 98 117 0.0 6.1 0.00 0.00 0.00 40 1011.2
20260906200926 98 33 4.3 3.5 0.00 0.00 0.00 40 1010.8
20260906200827 98 164 3.5 4.3 0.00 0.00 0.00 40 1010.7
20260906200726 98 127 1.7 4.3 0.00 0.00 0.00 40 1011.0
20260906200626 98 50 1.7 7.0 0.00 0.00 0.00 40 1011.0
20260906200526 98 117 0.9 7.0 0.00 0.00 0.00 40 1011.0
20260906200426 98 115 5.2 3.5 0.00 0.00 0.00 40 1011.1
20260906200326 98 203 0.0 3.5 0.00 0.00 0.00 40 1011.0
20260906200226 98 143 1.7 5.2 0.00 0.00 0.00 40 1011.1
20260906200125 98 17 2.6 5.2 0.00 0.00 0.00 41 1011.0
20260906200025 98 106 1.7 2.6 0.00 0.00 0.00 41 1011.0
20260906195925 98 195 0.0 3.5 0.00 0.00 0.00 41 1011.2
20260906195835 98 243 1.7 3.5 0.00 0.00 0.00 40 1011.3
20260906195725 98 343 1.7 2.6 0.00 0.00 0.00 41 1011.1
20260906195626 98 203 1.7 2.6 0.00 0.00 0.00 41 1011.1
20260906195525 98 151 1.7 1.7 0.00 0.00 0.00 41 1010.9
20260906195425 98 88 1.7 4.3 0.00 0.00 0.00 41 1011.1
20260906195326 98 217 0.0 4.3 0.00 0.00 0.00 41 1011.2
20260906195225 98 114 1.7 2.6 0.00 0.00 0.00 41 1011.3
20260906195135 98 169 0.9 3.5 0.00 0.00 0.00 42 1011.2
20260906195026 98 247 1.7 3.5 0.00 0.00 0.00 41 1011.2
20260906194925 98 241 0.9 3.5 0.00 0.00 0.00 42 1011.4
20260906194826 97 79 2.6 3.5 0.00 0.00 0.00 42 1011.3
20260906194726 97 129 2.6 2.6 0.00 0.00 0.00 43 1011.3
20260906194626 97 98 0.9 2.6 0.00 0.00 0.00 43 1011.2
20260906194426 97 30 0.0 2.6 0.00 0.00 0.00 43 1011.2
20260906194235 97 136 1.7 4.3 0.00 0.00 0.00 43 1011.4
20260906194125 97 339 1.7 4.3 0.00 0.00 0.00 43 1011.3
20260906194025 97 326 0.0 5.2 0.00 0.00 0.00 43 1011.4
20260906193926 97 26 0.9 4.3 0.00 0.00 0.00 42 1011.3
20260906193725 97 35 2.6 5.2 0.00 0.00 0.00 42 1011.3
20260906193625 98 318 1.7 5.2 0.00 0.00 0.00 41 1011.6
20260906193525 98 77 4.3 3.5 0.00 0.00 0.00 41 1011.2
20260906193425 98 156 2.6 2.6 0.00 0.00 0.00 41 1011.1
20260906193336 98 143 1.7 1.7 0.00 0.00 0.00 41 1011.2
20260906193226 98 154 0.0 1.7 0.00 0.00 0.00 42 1011.2
20260906193135 99 279 1.7 3.5 0.00 0.00 0.00 42 1011.4
20260906193026 99 16 0.9 4.3 0.00 0.00 0.00 42 1011.4
20260906192825 98 111 0.0 3.5 0.00 0.00 0.00 43 1011.2
20260906192736 98 30 0.9 2.6 0.00 0.00 0.00 43 1011.3
20260906192636 98 284 2.6 3.5 0.00 0.00 0.00 43 1011.2
20260906192526 98 282 1.7 3.5 0.00 0.00 0.00 42 1011.3
20260906192326 98 242 1.7 4.3 0.00 0.00 0.00 43 1011.2
20260906192225 98 173 3.5 4.3 0.00 0.00 0.00 44 1011.3
20260906192136 98 134 0.0 3.5 0.00 0.00 0.00 44 1011.2
20260906192026 98 230 0.9 3.5 0.00 0.00 0.00 43 1011.4
20260906191926 98 293 1.7 3.5 0.00 0.00 0.00 43 1011.3
20260906191836 97 197 0.9 5.2 0.00 0.00 0.00 43 1011.5
20260906191726 97 251 1.7 6.1 0.00 0.00 0.00 43 1011.6
20260906191626 97 191 1.7 6.1 0.00 0.00 0.00 43 1011.6
20260906191526 97 93 5.2 2.6 0.00 0.00 0.00 43 1011.7
20260906191326 97 153 0.9 3.5 0.00 0.00 0.00 44 1011.5
20260906191227 97 189 1.7 3.5 0.00 0.00 0.00 45 1011.7
20260906191126 96 232 2.6 2.6 0.00 0.00 0.00 45 1011.7
20260906191026 96 302 1.7 3.5 0.00 0.00 0.00 44 1011.8
20260906190927 97 140 0.0 4.3 0.00 0.00 0.00 44 1011.6
20260906190826 97 207 1.7 4.3 0.00 0.00 0.00 44 1011.8
20260906190726 97 13 0.0 5.2 0.00 0.00 0.00 43 1011.4
20260906190636 97 40 1.7 5.2 0.00 0.00 0.00 43 1011.7
20260906190526 97 320 0.0 7.0 0.00 0.00 0.00 43 1011.8
20260906190436 98 356 0.9 7.0 0.00 0.00 0.00 42 1011.7
20260906190327 98 114 5.2 3.5 0.00 0.00 0.00 41 1011.6
20260906190226 99 125 2.6 3.5 0.00 0.00 0.00 41 1011.6
20260906190126 99 11 1.7 2.6 0.00 0.00 0.00 41 1011.9
20260906185827 98 239 0.0 5.2 0.00 0.00 0.00 43 1011.7
20260906185726 98 314 1.7 2.6 0.00 0.00 0.00 43 1011.6
20260906185626 98 279 1.7 2.6 0.00 0.00 0.00 43 1011.7
20260906185526 98 43 0.9 1.7 0.00 0.00 0.00 44 1011.9
20260906185427 97 333 1.7 1.7 0.00 0.00 0.00 45 1011.7
20260906185327 97 307 0.0 2.6 0.00 0.00 0.00 44 1011.7
20260906185226 97 309 1.7 7.8 0.00 0.00 0.00 44 1012.0
20260906185126 97 58 1.7 7.8 0.00 0.00 0.00 43 1011.9
20260906185036 98 122 1.7 4.3 0.00 0.00 0.00 43 1011.9
20260906184927 97 108 3.5 3.5 0.00 0.00 0.00 44 1011.8
20260906184826 97 50 0.0 6.1 0.00 0.00 0.00 45 1012.0
20260906184626 97 182 0.9 3.5 0.00 0.00 0.00 45 1012.1
20260906184526 97 339 1.7 3.5 0.00 0.00 0.00 45 1011.8
20260906184427 97 42 0.9 6.1 0.00 0.00 0.00 44 1012.0
20260906184326 97 218 2.6 6.1 0.00 0.00 0.00 44 1011.9
20260906184226 97 143 0.9 3.5 0.00 0.00 0.00 43 1011.7
20260906184127 97 50 3.5 3.5 0.00 0.00 0.00 43 1011.9
20260906184026 97 106 2.6 4.3 0.00 0.00 0.00 44 1011.8
20260906183927 97 278 0.9 4.3 0.00 0.00 0.00 43 1011.9
20260906183826 97 158 0.0 2.6 0.00 0.00 0.00 43 1012.0
20260906183736 97 115 1.7 1.7 0.00 0.00 0.00 44 1011.9
20260906183626 97 143 0.9 3.5 0.00 0.00 0.00 44 1011.9
20260906183526 97 287 0.0 3.5 0.00 0.00 0.00 44 1011.9
20260906183426 97 20 0.9 2.6 0.00 0.00 0.00 44 1012.2
20260906183327 97 204 1.7 4.3 0.00 0.00 0.00 44 1012.1
20260906183236 97 85 1.7 4.3 0.00 0.00 0.00 44 1012.0
20260906183127 97 175 3.5 2.6 0.00 0.00 0.00 45 1012.2
20260906183026 96 196 1.7 5.2 0.00 0.00 0.00 45 1012.0
20260906182927 96 215 1.7 7.0 0.00 0.00 0.00 44 1012.1
20260906182826 96 289 1.7 7.0 0.00 0.00 0.00 44 1012.2
20260906182726 96 43 4.3 2.6 0.00 0.00 0.00 45 1012.2
20260906182625 96 163 1.7 3.5 0.00 0.00 0.00 45 1012.3
20260906182525 96 38 2.6 3.5 0.00 0.00 0.00 44 1012.1
20260906182425 97 138 3.5 3.5 0.00 0.00 0.00 44 1012.1
20260906182325 96 81 2.6 3.5 0.00 0.00 0.00 45 1012.1
20260906182236 96 222 1.7 4.3 0.00 0.00 0.00 44 1012.3
20260906182126 96 258 1.7 4.3 0.00 0.00 0.00 45 1012.2
20260906182025 96 352 1.7 8.7 0.00 0.00 0.00 45 1012.4
20260906181925 96 138 2.6 8.7 0.00 0.00 0.00 44 1012.2
20260906181826 96 162 1.7 4.3 0.00 0.00 0.00 45 1012.2
20260906181725 96 329 2.6 4.3 0.00 0.00 0.00 45 1012.1
20260906181626 96 66 2.6 4.3 0.00 0.00 0.00 44 1012.2
20260906181525 96 96 1.7 4.3 0.00 0.00 0.00 45 1012.3
20260906181426 96 248 3.5 3.5 0.00 0.00 0.00 45 1012.3
20260906181336 96 42 2.6 5.2 0.00 0.00 0.00 45 1012.3
20260906181236 96 151 0.9 6.1 0.00 0.00 0.00 44 1012.3
20260906181126 97 84 1.7 5.2 0.00 0.00 0.00 43 1012.4
20260906181026 97 99 4.3 5.2 0.00 0.00 0.00 43 1012.3
20260906180926 98 63 2.6 2.6 0.00 0.00 0.00 43 1012.1
20260906180726 98 63 0.0 3.5 0.00 0.00 0.00 43 1012.4
20260906180626 97 250 1.7 3.5 0.00 0.00 0.00 44 1012.2
20260906180526 97 182 2.6 3.5 0.00 0.00 0.00 45 1012.2
20260906180425 97 219 0.9 3.5 0.00 0.00 0.00 44 1012.5
20260906180326 97 244 1.7 3.5 0.00 0.00 0.00 44 1012.4
20260906180226 97 308 1.7 3.5 0.00 0.00 0.00 44 1012.7
20260906180026 97 188 0.0 3.5 0.00 0.00 0.00 43 1012.5
20260906175926 97 153 3.5 3.5 0.00 0.00 0.00 43 1012.5
20260906175826 97 46 1.7 3.5 0.00 0.00 0.00 43 1012.6
20260906175737 97 218 0.9 3.5 0.00 0.00 0.00 43 1012.4
20260906175637 97 166 0.0 3.5 0.00 0.00 0.00 44 1012.6
20260906175526 97 308 3.5 3.5 0.00 0.00 0.00 44 1012.5
20260906175126 96 315 1.7 3.5 0.00 0.00 0.00 45 1012.4
20260906175026 96 249 0.9 1.7 0.00 0.00 0.00 45 1012.6
20260906174927 96 209 1.7 3.5 0.00 0.00 0.00 45 1012.6
20260906174826 96 305 0.9 3.5 0.00 0.00 0.00 44 1012.6
20260906174737 96 54 0.0 5.2 0.00 0.00 0.00 45 1012.7
20260906174626 96 173 0.9 5.2 0.00 0.00 0.00 45 1012.6
20260906174526 96 198 0.9 1.7 0.00 0.00 0.00 45 1012.7
20260906174437 96 310 1.7 2.6 0.00 0.00 0.00 45 1012.8
20260906174326 96 350 0.9 2.6 0.00 0.00 0.00 45 1012.7
20260906174226 96 96 1.7 3.5 0.00 0.00 0.00 46 1012.9
20260906174126 95 261 0.9 3.5 0.00 0.00 0.00 45 1012.8
20260906174026 95 235 1.7 3.5 0.00 0.00 0.00 45 1012.8
20260906173936 96 127 0.9 3.5 0.00 0.00 0.00 44 1012.7
20260906173826 96 97 2.6 3.5 0.00 0.00 0.00 45 1013.0
20260906173726 95 196 1.7 3.5 0.00 0.00 0.00 45 1012.8
20260906173626 95 47 0.9 2.6 0.00 0.00 0.00 45 1012.8
20260906173527 95 301 0.0 3.5 0.00 0.00 0.00 44 1012.8
20260906173437 96 195 1.7 3.5 0.00 0.00 0.00 44 1012.9
20260906173326 96 72 1.7 5.2 0.00 0.00 0.00 44 1013.0
20260906173226 96 89 2.6 5.2 0.00 0.00 0.00 44 1012.9
20260906173136 96 209 1.7 1.7 0.00 0.00 0.00 45 1013.1
20260906173026 96 87 0.9 3.5 0.00 0.00 0.00 46 1013.1
20260906172926 96 213 0.9 3.5 0.00 0.00 0.00 46 1013.2
20260906172826 96 200 2.6 4.3 0.00 0.00 0.00 47 1013.1
20260906172727 96 242 1.7 4.3 0.00 0.00 0.00 47 1013.3
20260906172626 96 13 0.0 3.5 0.00 0.00 0.00 46 1013.1
20260906172525 96 115 1.7 3.5 0.00 0.00 0.00 47 1013.3
20260906172436 96 296 1.7 3.5 0.00 0.00 0.00 46 1013.2
20260906172325 96 259 1.7 2.6 0.00 0.00 0.00 47 1013.2
20260906172226 96 320 0.9 3.5 0.00 0.00 0.00 47 1013.2
20260906171925 96 27 0.0 4.3 0.00 0.00 0.00 46 1013.1
20260906171825 96 72 4.3 3.5 0.00 0.00 0.00 46 1013.1
20260906171725 96 283 1.7 3.5 0.00 0.00 0.00 46 1013.1
20260906171625 96 191 1.7 2.6 0.00 0.00 0.00 47 1013.4
20260906171526 96 252 2.6 1.7 0.00 0.00 0.00 47 1013.4
20260906171426 96 296 0.9 1.7 0.00 0.00 0.00 47 1013.0
20260906171325 96 272 0.0 3.5 0.00 0.00 0.00 47 1013.3
20260906171226 96 51 0.9 3.5 0.00 0.00 0.00 47 1013.4
20260906171126 95 219 2.6 4.3 0.00 0.00 0.00 47 1013.3
20260906171026 96 236 0.0 4.3 0.00 0.00 0.00 47 1013.1
20260906170925 96 230 4.3 3.5 0.00 0.00 0.00 47 1013.2
20260906170825 96 227 2.6 2.6 0.00 0.00 0.00 47 1013.3
20260906170725 96 32 0.9 2.6 0.00 0.00 0.00 47 1013.2
20260906170625 95 282 0.0 4.3 0.00 0.00 0.00 47 1013.2
20260906170426 95 314 1.7 2.6 0.00 0.00 0.00 48 1013.3
20260906170326 95 82 2.6 2.6 0.00 0.00 0.00 49 1013.3
20260906170126 95 269 0.0 2.6 0.00 0.00 0.00 49 1013.2
20260906170027 95 220 1.7 2.6 0.00 0.00 0.00 49 1013.1
20260906165927 94 101 0.9 2.6 0.00 0.00 0.00 49 1013.2
20260906165836 94 101 2.6 3.5 0.00 0.00 0.00 49 1013.6
20260906165727 94 255 2.6 4.3 0.00 0.00 0.00 48 1013.2
20260906165626 94 148 0.9 4.3 0.00 0.00 0.00 48 1013.3
20260906165526 94 138 1.7 4.3 0.00 0.00 0.00 49 1013.3
20260906165437 95 170 1.7 4.3 0.00 0.00 0.00 48 1013.3
20260906165326 95 134 2.6 4.3 0.00 0.00 0.00 48 1013.4
20260906165226 95 146 0.0 4.3 0.00 0.00 0.00 49 1013.2
20260906165027 95 220 1.7 3.5 0.00 0.00 0.00 49 1013.2
20260906164926 94 220 2.6 3.5 0.00 0.00 0.00 48 1013.3
20260906164826 94 301 0.9 5.2 0.00 0.00 0.00 49 1013.3
20260906164727 94 202 2.6 5.2 0.00 0.00 0.00 49 1013.5
20260906164627 94 206 5.2 2.6 0.00 0.00 0.00 50 1013.3
20260906164526 94 255 1.7 3.5 0.00 0.00 0.00 50 1013.4
20260906164426 94 119 1.7 3.5 0.00 0.00 0.00 49 1013.6
20260906164326 94 117 2.6 3.5 0.00 0.00 0.00 49 1013.5
20260906164226 94 258 2.6 2.6 0.00 0.00 0.00 50 1013.6
20260906163926 94 324 0.0 3.5 0.00 0.00 0.00 51 1013.7
20260906163827 93 125 1.7 1.7 0.00 0.00 0.00 52 1013.4
20260906163726 93 294 0.0 1.7 0.00 0.00 0.00 51 1013.6
20260906163626 93 31 0.9 2.6 0.00 0.00 0.00 51 1013.6
20260906163526 93 213 0.9 3.5 0.00 0.00 0.00 51 1013.6
20260906163426 93 195 1.7 3.5 0.00 0.00 0.00 51 1013.5
20260906163326 93 209 1.7 3.5 0.00 0.00 0.00 50 1013.4
20260906163226 93 98 3.5 4.3 0.00 0.00 0.00 49 1013.5
20260906163126 93 336 1.7 3.5 0.00 0.00 0.00 49 1013.7
20260906163026 93 103 1.7 3.5 0.00 0.00 0.00 50 1013.6
20260906162927 93 82 3.5 3.5 0.00 0.00 0.00 50 1013.7
20260906162836 93 133 1.7 2.6 0.00 0.00 0.00 51 1013.7
20260906162726 93 74 2.6 2.6 0.00 0.00 0.00 51 1013.5
20260906162626 93 22 0.0 3.5 0.00 0.00 0.00 51 1013.6
20260906162526 93 67 1.7 3.5 0.00 0.00 0.00 51 1013.7
20260906162426 93 187 0.9 5.2 0.00 0.00 0.00 50 1013.6
20260906162326 93 132 0.0 5.2 0.00 0.00 0.00 50 1013.7
20260906162226 93 352 1.7 2.6 0.00 0.00 0.00 50 1013.5
20260906162126 93 168 2.6 3.5 0.00 0.00 0.00 51 1013.6
20260906162026 93 271 0.9 3.5 0.00 0.00 0.00 51 1013.4
20260906161926 93 67 1.7 2.6 0.00 0.00 0.00 51 1013.6
20260906161825 93 112 0.0 2.6 0.00 0.00 0.00 51 1013.4
20260906161726 93 156 1.7 3.5 0.00 0.00 0.00 52 1013.5
20260906161626 93 57 0.9 4.3 0.00 0.00 0.00 52 1013.5
20260906161526 93 208 0.9 4.3 0.00 0.00 0.00 52 1013.6
20260906161426 93 47 0.9 4.3 0.00 0.00 0.00 52 1013.5
20260906161326 93 245 2.6 3.5 0.00 0.00 0.00 52 1013.5
20260906161225 93 234 1.7 3.5 0.00 0.00 0.00 52 1013.6
20260906161126 93 114 2.6 1.7 0.00 0.00 0.00 52 1013.5
20260906161026 93 148 1.7 1.7 0.00 0.00 0.00 53 1013.3
20260906160926 93 302 0.9 3.5 0.00 0.00 0.00 53 1013.6
20260906160826 93 203 0.0 3.5 0.00 0.00 0.00 52 1013.4
20260906160726 93 95 1.7 3.5 0.00 0.00 0.00 52 1013.4
20260906160636 93 58 0.0 3.5 0.00 0.00 0.00 52 1013.5
20260906160536 93 200 0.9 3.5 0.00 0.00 0.00 52 1013.4
20260906160426 93 120 1.7 1.7 0.00 0.00 0.00 52 1013.5
20260906160326 93 334 1.7 1.7 0.00 0.00 0.00 52 1013.6
20260906160236 93 295 0.0 3.5 0.00 0.00 0.00 52 1013.5
20260906160126 93 13 1.7 3.5 0.00 0.00 0.00 52 1013.5
20260906155926 93 352 0.9 2.6 0.00 0.00 0.00 52 1013.6
20260906155726 93 240 0.9 2.6 0.00 0.00 0.00 54 1013.5
20260906155536 92 253 1.7 3.5 0.00 0.00 0.00 54 1013.6
20260906155426 92 283 0.0 3.5 0.00 0.00 0.00 54 1013.6
20260906155336 92 66 1.7 3.5 0.00 0.00 0.00 53 1013.4
20260906155226 92 163 1.7 1.7 0.00 0.00 0.00 54 1013.5
20260906155026 92 160 0.9 2.6 0.00 0.00 0.00 55 1013.8
20260906154926 92 134 1.7 2.6 0.00 0.00 0.00 54 1013.4
20260906154826 92 308 1.7 3.5 0.00 0.00 0.00 54 1013.6
20260906154726 92 119 1.7 3.5 0.00 0.00 0.00 56 1013.4
20260906154626 92 166 1.7 2.6 0.00 0.00 0.00 57 1013.7
20260906154526 92 329 2.6 2.6 0.00 0.00 0.00 58 1013.4
20260906154426 92 215 0.0 2.6 0.00 0.00 0.00 58 1013.6
20260906154327 92 188 1.7 1.7 0.00 0.00 0.00 57 1013.4
20260906154036 92 334 0.0 3.5 0.00 0.00 0.00 57 1013.4
20260906153936 92 106 1.7 1.7 0.00 0.00 0.00 57 1013.5
20260906153826 92 301 0.9 2.6 0.00 0.00 0.00 58 1013.4
20260906153726 92 226 0.9 2.6 0.00 0.00 0.00 58 1013.6
20260906153627 92 265 1.7 1.7 0.00 0.00 0.00 59 1013.5
20260906153426 91 227 0.0 3.5 0.00 0.00 0.00 59 1013.2
20260906153337 92 180 1.7 3.5 0.00 0.00 0.00 59 1013.5
20260906153226 92 75 0.9 1.7 0.00 0.00 0.00 58 1013.2
20260906153126 92 48 1.7 3.5 0.00 0.00 0.00 58 1013.5
20260906153026 92 345 1.7 3.5 0.00 0.00 0.00 58 1013.5
20260906152926 92 202 0.0 2.6 0.00 0.00 0.00 58 1013.3
20260906152826 92 120 2.6 3.5 0.00 0.00 0.00 58 1013.5
20260906152726 93 34 2.6 3.5 0.00 0.00 0.00 57 1013.4
20260906152626 93 95 1.7 2.6 0.00 0.00 0.00 56 1013.4
20260906152526 93 135 1.7 1.7 0.00 0.00 0.00 57 1013.3
20260906152226 92 195 0.0 2.6 0.00 0.00 0.00 57 1013.4
20260906152127 92 88 1.7 1.7 0.00 0.00 0.00 58 1013.3
20260906152027 92 150 0.0 2.6 0.00 0.00 0.00 59 1013.3
20260906151926 92 119 1.7 2.6 0.00 0.00 0.00 59 1013.3
20260906151826 92 192 0.0 1.7 0.00 0.00 0.00 59 1013.2
20260906151727 91 258 0.9 2.6 0.00 0.00 0.00 59 1013.3
20260906151626 91 252 0.0 2.6 0.00 0.00 0.00 59 1013.3
20260906151526 91 111 0.9 3.5 0.00 0.00 0.00 59 1013.4
20260906151426 91 181 0.0 3.5 0.00 0.00 0.00 59 1013.2
20260906151327 91 98 2.6 3.5 0.00 0.00 0.00 59 1013.3
20260906151227 91 228 0.9 3.5 0.00 0.00 0.00 59 1013.3
20260906151126 91 290 0.0 0.0 0.00 0.00 0.00 58 1013.2
20260906150726 92 55 0.0 2.6 0.00 0.00 0.00 58 1013.3
20260906150626 92 349 1.7 1.7 0.00 0.00 0.00 58 1013.3
20260906150527 92 259 0.9 1.7 0.00 0.00 0.00 58 1013.5
20260906150436 92 205 0.0 1.7 0.00 0.00 0.00 58 1013.2
20260906150136 92 266 0.9 1.7 0.00 0.00 0.00 58 1013.2
20260906145926 91 333 0.0 1.7 0.00 0.00 0.00 60 1013.3
20260906145825 91 119 0.9 1.7 0.00 0.00 0.00 61 1013.3
20260906145726 90 317 0.9 1.7 0.00 0.00 0.00 61 1013.2
20260906145626 90 294 0.9 1.7 0.00 0.00 0.00 61 1013.4
20260906145536 90 281 0.9 1.7 0.00 0.00 0.00 62 1013.1
20260906145426 90 224 0.9 3.5 0.00 0.00 0.00 62 1013.3
20260906145326 90 1 0.0 2.6 0.00 0.00 0.00 62 1013.4
20260906145236 90 87 1.7 1.7 0.00 0.00 0.00 62 1013.3
20260906145026 90 191 0.9 1.7 0.00 0.00 0.00 62 1013.4
20260906144826 90 164 0.0 1.7 0.00 0.00 0.00 62 1013.1
20260906144725 90 5 1.7 1.7 0.00 0.00 0.00 62 1013.6
20260906144626 90 109 0.0 0.9 0.00 0.00 0.00 62 1013.4
20260906144536 90 251 0.9 1.7 0.00 0.00 0.00 63 1013.4
20260906144326 90 151 0.0 1.7 0.00 0.00 0.00 63 1013.3
20260906144236 90 101 0.9 1.7 0.00 0.00 0.00 63 1013.4
20260906144026 89 209 0.0 1.7 0.00 0.00 0.00 63 1013.3
20260906143937 89 153 0.9 3.5 0.00 0.00 0.00 64 1013.3
20260906143836 89 87 0.0 3.5 0.00 0.00 0.00 64 1013.3
20260906143636 89 55 0.9 1.7 0.00 0.00 0.00 63 1013.3
20260906143026 88 195 0.0 2.6 0.00 0.00 0.00 65 1013.5
20260906142937 88 32 0.9 1.7 0.00 0.00 0.00 65 1013.5
20260906142636 88 69 0.0 3.5 0.00 0.00 0.00 65 1013.6
20260906142526 88 323 0.9 3.5 0.00 0.00 0.00 64 1013.5
20260906142326 89 210 0.0 2.6 0.00 0.00 0.00 64 1013.5
20260906142226 89 198 0.9 1.7 0.00 0.00 0.00 64 1013.4
20260906142126 89 248 0.0 1.7 0.00 0.00 0.00 64 1013.4
20260906142025 89 211 1.7 1.7 0.00 0.00 0.00 64 1013.5
20260906141726 89 227 0.0 1.7 0.00 0.00 0.00 65 1013.4
20260906141626 89 165 0.9 1.7 0.00 0.00 0.00 65 1013.7
20260906140636 87 218 0.0 0.9 0.00 0.00 0.00 68 1013.6
20260906140526 87 186 0.9 2.6 0.00 0.00 0.00 68 1013.3
20260906140325 87 224 0.0 1.7 0.00 0.00 0.00 69 1013.3
20260906140225 86 335 0.9 1.7 0.00 0.00 0.00 69 1013.3
20260906140136 86 327 0.0 1.7 0.00 0.00 0.00 69 1013.7
20260906140025 86 95 1.7 2.6 0.00 0.00 0.00 69 1013.5
20260906134225 85 131 0.0 1.7 0.00 0.00 0.00 71 1013.4
20260906134125 85 301 0.9 0.9 0.00 0.00 0.00 72 1013.5
20260906133736 84 248 0.0 1.7 0.00 0.00 0.00 75 1013.4
20260906133635 84 248 0.9 1.7 0.00 0.00 0.00 75 1013.5
20260906133525 84 338 1.7 1.7 0.00 0.00 0.00 75 1013.7
20260906133426 84 13 0.0 1.7 0.00 0.00 0.00 74 1013.4
20260906133325 84 123 1.7 1.7 0.00 0.00 0.00 74 1013.5
20260906133026 83 154 0.0 1.7 0.00 0.00 0.00 76 1013.6
20260906132926 83 193 0.9 1.7 0.00 0.00 0.00 76 1013.5
20260906132735 83 230 0.0 2.6 0.00 0.00 0.00 75 1013.4
20260906132526 84 101 1.7 1.7 0.00 0.00 0.00 74 1013.7
20260906132425 84 88 0.9 1.7 0.00 0.00 0.00 74 1013.6
20260906132326 84 93 0.9 1.7 0.00 0.00 0.00 74 1013.5
20260906132036 83 37 0.0 1.7 0.00 0.00 0.00 76 1013.6
20260906131927 83 334 0.9 1.7 0.00 0.00 0.00 76 1013.7
20260906131527 83 279 0.0 2.6 0.00 0.00 0.00 77 1013.4
20260906131426 83 82 0.9 2.6 0.00 0.00 0.00 77 1013.5
20260906131326 83 99 1.7 3.5 0.00 0.00 0.00 77 1013.4
20260906131226 83 98 0.9 3.5 0.00 0.00 0.00 77 1013.6
20260906131127 83 211 1.7 2.6 0.00 0.00 0.00 78 1013.5
20260906131025 82 195 1.7 2.6 0.00 0.00 0.00 78 1013.7
20260906130926 82 211 0.0 2.6 0.00 0.00 0.00 77 1013.6
20260906130837 82 73 0.9 1.7 0.00 0.00 0.00 77 1013.6
20260906130726 82 261 0.9 0.9 0.00 0.00 0.00 78 1013.5
20260906130426 82 209 0.0 2.6 0.00 0.00 0.00 78 1013.7
20260906130326 82 76 0.9 1.7 0.00 0.00 0.00 79 1013.7
20260906130227 82 105 0.0 2.6 0.00 0.00 0.00 79 1013.6
20260906130126 82 208 1.7 2.6 0.00 0.00 0.00 79 1013.5
20260906130027 82 188 0.9 2.6 0.00 0.00 0.00 79 1013.5
20260906125927 82 178 1.7 2.6 0.00 0.00 0.00 79 1013.7
20260906125827 81 205 1.7 1.7 0.00 0.00 0.00 80 1013.6
20260906125726 81 200 0.9 1.7 0.00 0.00 0.00 80 1013.4
20260906125627 81 298 0.0 1.7 0.00 0.00 0.00 81 1013.4
20260906125526 81 353 0.9 1.7 0.00 0.00 0.00 81 1013.7
20260906125437 81 273 0.0 2.6 0.00 0.00 0.00 81 1013.7
20260906125326 80 26 0.9 2.6 0.00 0.00 0.00 81 1013.5
20260906125226 80 65 1.7 1.7 0.00 0.00 0.00 82 1013.5
20260906125026 80 314 1.7 3.5 0.00 0.00 0.00 82 1013.8
20260906124926 80 158 0.9 3.5 0.00 0.00 0.00 83 1013.6
20260906124827 80 282 1.7 3.5 0.00 0.00 0.00 83 1013.6
20260906124726 80 246 1.7 3.5 0.00 0.00 0.00 83 1013.4
20260906124627 79 330 2.6 3.5 0.00 0.00 0.00 83 1013.7
20260906124427 79 344 1.7 1.7 0.00 0.00 0.00 85 1013.8
20260906124326 79 353 0.0 2.6 0.00 0.00 0.00 85 1013.7
20260906124227 79 355 0.9 2.6 0.00 0.00 0.00 85 1013.5
20260906124126 78 0 0.0 2.6 0.00 0.00 0.00 86 1013.8
20260906123927 78 359 0.9 3.5 0.00 0.00 0.00 86 1013.5
20260906123836 78 345 2.6 3.5 0.00 0.00 0.00 86 1013.6
20260906123726 78 353 1.7 3.5 0.00 0.00 0.00 86 1013.5
20260906123626 78 3 0.9 3.5 0.00 0.00 0.00 87 1013.5
20260906123526 78 13 1.7 3.5 0.00 0.00 0.00 87 1013.5
20260906123427 78 2 1.7 3.5 0.00 0.00 0.00 87 1013.7
20260906123336 78 340 0.9 2.6 0.00 0.00 0.00 87 1013.7
20260906123227 78 354 2.6 2.6 0.00 0.00 0.00 87 1013.5
20260906123126 78 345 0.9 2.6 0.00 0.00 0.00 87 1013.4
20260906123026 78 354 2.6 2.6 0.00 0.00 0.00 87 1013.5
20260906122736 78 340 0.9 4.3 0.00 0.00 0.00 87 1013.4
20260906122625 78 318 1.7 3.5 0.00 0.00 0.00 87 1013.4
20260906122536 78 332 2.6 1.7 0.00 0.00 0.00 87 1013.6
20260906122425 78 39 0.0 1.7 0.00 0.00 0.00 87 1013.5
20260906122325 78 337 1.7 1.7 0.00 0.00 0.00 87 1013.3
20260906122226 77 327 1.7 1.7 0.00 0.00 0.00 87 1013.5
20260906122136 77 40 0.9 1.7 0.00 0.00 0.00 86 1013.4
20260906122026 78 39 1.7 2.6 0.00 0.00 0.00 86 1013.4
20260906121925 78 351 1.7 2.6 0.00 0.00 0.00 86 1013.4
20260906121826 78 32 1.7 1.7 0.00 0.00 0.00 86 1013.3
20260906121426 78 296 0.9 2.6 0.00 0.00 0.00 86 1013.5
20260906121325 78 284 1.7 2.6 0.00 0.00 0.00 86 1013.2
20260906121226 78 221 0.0 2.6 0.00 0.00 0.00 86 1013.3
20260906121126 78 191 1.7 1.7 0.00 0.00 0.00 87 1013.4
20260906121028 78 192 1.7 1.7 0.00 0.00 0.00 86 1013.2
20260906120826 78 10 0.0 1.7 0.00 0.00 0.00 86 1013.4
20260906120735 78 134 0.9 1.7 0.00 0.00 0.00 86 1013.4
20260906120626 78 89 1.7 0.9 0.00 0.00 0.00 86 1013.2
20260906115927 78 269 0.0 2.6 0.00 0.00 0.00 86 1013.1
20260906115827 78 320 0.9 2.6 0.00 0.00 0.00 86 1013.2
20260906115737 78 271 1.7 1.7 0.00 0.00 0.00 86 1013.2
20260906115627 78 72 0.0 1.7 0.00 0.00 0.00 86 1013.3
20260906115526 78 48 0.9 1.7 0.00 0.00 0.00 86 1013.4
20260906115326 78 200 0.0 2.6 0.00 0.00 0.00 86 1013.4
20260906115236 78 189 1.7 2.6 0.00 0.00 0.00 86 1013.2
20260906115126 78 235 0.0 1.7 0.00 0.00 0.00 86 1013.0
20260906115026 78 212 0.9 1.7 0.00 0.00 0.00 86 1013.1
20260906114726 78 86 0.0 1.7 0.00 0.00 0.00 86 1013.3
20260906114627 78 259 1.7 0.0 0.00 0.00 0.00 86 1013.3
20260906102926 79 44 0.0 0.9 0.00 0.00 0.00 84 1012.9
20260906102826 79 45 0.9 0.9 0.00 0.00 0.00 83 1012.7
20260906100725 79 309 0.0 0.9 0.00 0.00 0.00 83 1012.6
20260906100626 79 316 0.9 0.0 0.00 0.00 0.00 83 1012.2
20260906090027 80 242 0.0 0.9 0.00 0.00 0.00 79 1012.0
20260906085926 80 233 0.9 0.0 0.00 0.00 0.00 79 1011.8
20260906084226 81 247 0.0 0.9 0.00 0.00 0.00 78 1011.9
20260906084126 81 308 0.9 1.7 0.00 0.00 0.00 78 1011.7
20260906083326 81 255 0.0 0.9 0.00 0.00 0.00 77 1011.8
20260906083226 81 255 0.9 0.9 0.00 0.00 0.00 77 1011.8
20260906081726 81 285 0.0 0.9 0.00 0.00 0.00 76 1011.8
20260906081627 81 316 0.9 0.9 0.00 0.00 0.00 76 1011.8
20260906081326 81 258 0.0 0.9 0.00 0.00 0.00 76 1011.7
20260906081227 81 284 0.9 0.9 0.00 0.00 0.00 76 1011.8
20260906080926 81 296 0.0 1.7 0.00 0.00 0.00 76 1011.7
20260906080836 81 215 1.7 1.7 0.00 0.00 0.00 76 1011.9
20260906080727 82 242 0.9 0.9 0.00 0.00 0.00 76 1012.0
20260906080626 82 234 0.9 1.7 0.00 0.00 0.00 76 1011.7
20260906080426 82 269 0.0 1.7 0.00 0.00 0.00 76 1011.9
20260906080127 82 311 0.9 0.9 0.00 0.00 0.00 76 1012.0
20260906075926 82 291 0.0 0.9 0.00 0.00 0.00 75 1011.9
20260906075827 82 239 0.9 0.9 0.00 0.00 0.00 76 1012.1
20260906075626 82 315 0.0 0.9 0.00 0.00 0.00 76 1012.0
20260906075536 82 314 0.9 0.9 0.00 0.00 0.00 76 1011.9
20260906075336 82 330 0.0 1.7 0.00 0.00 0.00 75 1011.9
20260906075226 82 243 1.7 1.7 0.00 0.00 0.00 75 1012.0
20260906075026 82 254 0.0 0.9 0.00 0.00 0.00 75 1012.2
20260906074927 82 255 0.9 0.9 0.00 0.00 0.00 75 1012.1
20260906074326 82 291 0.0 1.7 0.00 0.00 0.00 75 1011.9
20260906074237 82 225 0.9 1.7 0.00 0.00 0.00 75 1012.1
20260906074126 82 218 0.9 1.7 0.00 0.00 0.00 75 1012.0
20260906074026 82 230 0.0 1.7 0.00 0.00 0.00 75 1011.8
20260906073926 82 251 0.9 0.9 0.00 0.00 0.00 75 1011.7
20260906073836 82 238 0.0 1.7 0.00 0.00 0.00 75 1011.8
20260906073726 82 320 0.9 1.7 0.00 0.00 0.00 75 1012.0
20260906072128 82 224 0.0 1.7 0.00 0.00 0.00 74 1011.7
20260906072028 82 294 1.7 1.7 0.00 0.00 0.00 74 1012.0
20260906071926 82 221 1.7 1.7 0.00 0.00 0.00 74 1011.8
20260906071826 82 244 0.9 0.9 0.00 0.00 0.00 74 1011.9
20260906071727 82 237 0.9 1.7 0.00 0.00 0.00 74 1011.8
20260906071426 82 266 0.0 1.7 0.00 0.00 0.00 74 1011.8
20260906071327 82 265 0.9 0.9 0.00 0.00 0.00 74 1012.0
20260906071126 82 229 0.0 1.7 0.00 0.00 0.00 74 1011.8
20260906071037 82 257 0.9 0.9 0.00 0.00 0.00 74 1011.9
20260906070627 82 343 0.0 0.9 0.00 0.00 0.00 73 1012.1
20260906070527 82 290 0.9 0.9 0.00 0.00 0.00 73 1012.1
20260906070126 82 62 0.0 1.7 0.00 0.00 0.00 73 1012.0
20260906070027 82 327 0.9 1.7 0.00 0.00 0.00 73 1012.1
20260906065726 83 300 0.0 1.7 0.00 0.00 0.00 73 1012.1
20260906065626 83 289 0.9 1.7 0.00 0.00 0.00 73 1012.1
20260906065426 83 236 0.0 1.7 0.00 0.00 0.00 73 1012.1
20260906065226 83 293 0.9 1.7 0.00 0.00 0.00 72 1012.0
20260906065137 83 293 1.7 1.7 0.00 0.00 0.00 72 1012.0
20260906064926 83 265 0.9 2.6 0.00 0.00 0.00 72 1012.3
20260906064836 83 23 0.0 2.6 0.00 0.00 0.00 72 1012.1
20260906064726 83 250 1.7 1.7 0.00 0.00 0.00 72 1012.1
20260906064637 83 206 0.0 1.7 0.00 0.00 0.00 72 1012.1
20260906064526 83 86 0.9 1.7 0.00 0.00 0.00 72 1012.1
20260906064426 83 213 0.0 1.7 0.00 0.00 0.00 72 1012.1
20260906064326 83 248 1.7 3.5 0.00 0.00 0.00 72 1012.1
20260906063837 83 113 0.0 0.9 0.00 0.00 0.00 71 1012.2
20260906063726 83 286 0.9 0.9 0.00 0.00 0.00 71 1012.3
20260906063426 83 355 0.0 1.7 0.00 0.00 0.00 70 1012.1
20260906063327 83 296 0.9 1.7 0.00 0.00 0.00 70 1012.1
20260906063027 83 293 0.0 1.7 0.00 0.00 0.00 70 1012.2
20260906062938 83 271 0.9 1.7 0.00 0.00 0.00 70 1012.2
20260906061626 83 329 0.0 0.9 0.00 0.00 0.00 69 1012.0
20260906061536 83 254 0.9 0.9 0.00 0.00 0.00 69 1012.2
20260906061127 83 222 0.0 2.6 0.00 0.00 0.00 69 1012.3
20260906061026 83 247 1.7 1.7 0.00 0.00 0.00 68 1012.2
20260906060927 83 246 0.9 2.6 0.00 0.00 0.00 68 1012.3
20260906060226 84 280 0.0 1.7 0.00 0.00 0.00 68 1012.3
20260906060126 84 304 0.9 1.7 0.00 0.00 0.00 67 1012.2
20260906060026 84 285 1.7 0.9 0.00 0.00 0.00 67 1012.3
20260906055826 84 289 0.0 1.7 0.00 0.00 0.00 67 1012.1
20260906055726 84 227 0.9 0.9 0.00 0.00 0.00 67 1012.2
20260906055425 84 228 0.0 1.7 0.00 0.00 0.00 67 1012.2
20260906055326 84 237 0.9 1.7 0.00 0.00 0.00 67 1012.2
20260906054926 84 311 0.0 1.7 0.00 0.00 0.00 66 1012.1
20260906054826 84 208 0.9 1.7 0.00 0.00 0.00 66 1011.9
20260906054726 84 0 0.0 1.7 0.00 0.00 0.00 66 1011.7
20260906054626 84 222 1.7 0.9 0.00 0.00 0.00 66 1012.1
20260906054426 84 339 0.0 1.7 0.00 0.00 0.00 66 1011.9
20260906054326 84 305 1.7 1.7 0.00 0.00 0.00 66 1012.2
20260906054026 84 255 0.0 1.7 0.00 0.00 0.00 66 1012.2
20260906053926 84 224 1.7 1.7 0.00 0.00 0.00 66 1012.1
20260906051926 85 223 0.0 1.7 0.00 0.00 0.00 65 1012.1
20260906051827 85 299 1.7 1.7 0.00 0.00 0.00 65 1012.0
20260906051627 85 269 0.0 1.7 0.00 0.00 0.00 65 1011.8
20260906051537 85 241 1.7 1.7 0.00 0.00 0.00 65 1011.9
20260906051227 85 230 0.0 1.7 0.00 0.00 0.00 64 1012.0
20260906051027 85 227 0.9 1.7 0.00 0.00 0.00 64 1011.8
20260906050326 85 211 0.0 1.7 0.00 0.00 0.00 64 1012.1
20260906050225 85 214 0.9 0.9 0.00 0.00 0.00 64 1012.0
20260906045935 85 330 0.0 1.7 0.00 0.00 0.00 64 1012.0
20260906045826 85 311 0.9 2.6 0.00 0.00 0.00 64 1012.0
20260906045626 85 212 0.0 1.7 0.00 0.00 0.00 64 1012.1
20260906045526 85 153 0.9 1.7 0.00 0.00 0.00 64 1011.8
20260906045326 85 326 0.0 1.7 0.00 0.00 0.00 64 1011.9
20260906045225 85 78 0.9 1.7 0.00 0.00 0.00 64 1011.9
20260906045125 85 107 0.9 0.9 0.00 0.00 0.00 64 1012.0
20260906044826 85 340 0.0 0.9 0.00 0.00 0.00 64 1011.9
20260906044735 85 309 0.9 2.6 0.00 0.00 0.00 64 1011.9
20260906044625 85 221 0.0 2.6 0.00 0.00 0.00 64 1011.9
20260906044535 85 210 1.7 1.7 0.00 0.00 0.00 64 1012.0
20260906044335 85 254 0.0 1.7 0.00 0.00 0.00 64 1012.0
20260906044226 85 268 0.9 1.7 0.00 0.00 0.00 64 1012.0
20260906044026 85 5 0.0 1.7 0.00 0.00 0.00 64 1012.2
20260906043936 85 264 1.7 1.7 0.00 0.00 0.00 64 1012.1
20260906043827 85 221 1.7 1.7 0.00 0.00 0.00 64 1011.9
20260906043626 85 100 0.0 1.7 0.00 0.00 0.00 64 1012.1
20260906043525 85 245 0.9 1.7 0.00 0.00 0.00 64 1011.9
20260906043425 85 255 0.0 1.7 0.00 0.00 0.00 64 1012.0
20260906043335 85 43 0.9 2.6 0.00 0.00 0.00 64 1012.1
20260906043125 85 91 1.7 1.7 0.00 0.00 0.00 64 1012.1
20260906043026 85 222 1.7 1.7 0.00 0.00 0.00 64 1012.2
20260906042726 85 222 0.0 1.7 0.00 0.00 0.00 64 1012.3
20260906042626 85 275 0.9 2.6 0.00 0.00 0.00 64 1012.1
20260906042536 85 135 0.0 2.6 0.00 0.00 0.00 64 1012.1
20260906042426 85 36 1.7 1.7 0.00 0.00 0.00 64 1012.2
20260906042326 86 251 0.9 1.7 0.00 0.00 0.00 63 1012.0
20260906042125 86 224 0.0 2.6 0.00 0.00 0.00 63 1012.2
20260906042026 86 199 0.9 1.7 0.00 0.00 0.00 63 1012.0
20260906041936 86 186 1.7 1.7 0.00 0.00 0.00 64 1012.1
20260906041826 86 205 0.0 1.7 0.00 0.00 0.00 63 1011.9
20260906041736 86 296 0.9 2.6 0.00 0.00 0.00 63 1012.2
20260906041526 86 280 0.9 2.6 0.00 0.00 0.00 63 1012.0
20260906041426 86 214 2.6 1.7 0.00 0.00 0.00 63 1012.1
20260906041326 86 235 0.0 1.7 0.00 0.00 0.00 63 1012.1
20260906041226 86 335 1.7 3.5 0.00 0.00 0.00 63 1012.0
20260906041125 86 353 0.0 3.5 0.00 0.00 0.00 63 1012.1
20260906041026 86 195 1.7 2.6 0.00 0.00 0.00 63 1012.1
20260906040925 86 147 0.0 1.7 0.00 0.00 0.00 63 1012.1
20260906040826 86 139 1.7 1.7 0.00 0.00 0.00 63 1011.9
20260906040526 86 283 0.0 2.6 0.00 0.00 0.00 63 1011.8
20260906040426 86 268 1.7 2.6 0.00 0.00 0.00 63 1011.8
20260906040225 86 263 0.0 2.6 0.00 0.00 0.00 63 1011.9
20260906040126 86 238 0.9 2.6 0.00 0.00 0.00 63 1011.8
20260906040026 86 66 1.7 2.6 0.00 0.00 0.00 63 1011.8
20260906035926 86 264 0.9 2.6 0.00 0.00 0.00 63 1011.9
20260906035825 86 227 1.7 2.6 0.00 0.00 0.00 63 1012.1
20260906035725 86 24 1.7 2.6 0.00 0.00 0.00 63 1011.9
20260906035626 86 224 0.9 2.6 0.00 0.00 0.00 63 1011.9
20260906035336 86 24 0.9 2.6 0.00 0.00 0.00 62 1012.0
20260906035226 86 214 0.0 2.6 0.00 0.00 0.00 62 1011.8
20260906035125 86 142 0.9 1.7 0.00 0.00 0.00 62 1011.8
20260906035025 86 240 0.0 1.7 0.00 0.00 0.00 62 1012.1
20260906034925 86 204 0.9 2.6 0.00 0.00 0.00 62 1011.9
20260906034826 86 222 1.7 2.6 0.00 0.00 0.00 62 1011.8
20260906034726 86 40 1.7 2.6 0.00 0.00 0.00 62 1011.8
20260906034625 86 8 1.7 2.6 0.00 0.00 0.00 62 1011.8
20260906034525 86 323 1.7 1.7 0.00 0.00 0.00 62 1012.0
20260906034426 86 222 0.0 1.7 0.00 0.00 0.00 62 1012.1
20260906034325 86 269 0.9 1.7 0.00 0.00 0.00 62 1012.0
20260906034135 86 289 0.0 2.6 0.00 0.00 0.00 62 1011.9
20260906034026 86 236 1.7 1.7 0.00 0.00 0.00 62 1012.1
20260906033926 86 276 0.9 2.6 0.00 0.00 0.00 62 1011.8
20260906033735 86 326 0.0 2.6 0.00 0.00 0.00 62 1012.0
20260906033626 86 193 1.7 1.7 0.00 0.00 0.00 62 1011.9
20260906033235 87 240 0.0 2.6 0.00 0.00 0.00 61 1011.7
20260906033135 87 230 1.7 1.7 0.00 0.00 0.00 61 1012.0
20260906033025 87 232 1.7 1.7 0.00 0.00 0.00 61 1012.1
20260906032826 87 209 0.0 1.7 0.00 0.00 0.00 61 1011.9
20260906032726 87 249 0.9 1.7 0.00 0.00 0.00 61 1011.9
20260906032628 87 319 1.7 1.7 0.00 0.00 0.00 61 1011.8
20260906032527 87 315 1.7 1.7 0.00 0.00 0.00 61 1012.1
20260906032436 87 279 1.7 1.7 0.00 0.00 0.00 61 1011.8
20260906032336 87 216 0.0 1.7 0.00 0.00 0.00 61 1011.6
20260906032236 87 304 1.7 2.6 0.00 0.00 0.00 61 1011.8
20260906032127 87 284 0.0 2.6 0.00 0.00 0.00 61 1011.8
20260906032026 87 62 0.9 1.7 0.00 0.00 0.00 61 1011.7
20260906031926 87 238 1.7 1.7 0.00 0.00 0.00 60 1011.8
20260906031826 87 202 0.0 1.7 0.00 0.00 0.00 60 1011.9
20260906031726 87 244 0.9 1.7 0.00 0.00 0.00 60 1012.0
20260906031426 87 9 0.9 1.7 0.00 0.00 0.00 60 1012.0
20260906031227 87 323 0.0 2.6 0.00 0.00 0.00 60 1012.0
20260906031026 87 266 0.9 1.7 0.00 0.00 0.00 60 1012.3
20260906030926 87 218 0.0 1.7 0.00 0.00 0.00 60 1012.1
20260906030826 87 156 1.7 1.7 0.00 0.00 0.00 60 1012.1
20260906030626 87 317 0.0 1.7 0.00 0.00 0.00 60 1011.9
20260906030526 87 284 1.7 2.6 0.00 0.00 0.00 60 1012.0
20260906030426 87 199 1.7 2.6 0.00 0.00 0.00 60 1012.0
20260906030226 87 17 0.0 2.6 0.00 0.00 0.00 59 1012.0
20260906030126 87 334 0.9 2.6 0.00 0.00 0.00 59 1011.9
20260906030026 87 335 0.0 2.6 0.00 0.00 0.00 59 1011.7
20260906025936 87 57 1.7 2.6 0.00 0.00 0.00 59 1012.1
20260906025836 87 93 0.9 4.3 0.00 0.00 0.00 59 1012.0
20260906025727 87 217 2.6 4.3 0.00 0.00 0.00 59 1012.0
20260906025526 87 66 1.7 3.5 0.00 0.00 0.00 59 1012.0
20260906025436 87 107 0.0 3.5 0.00 0.00 0.00 59 1011.9
20260906025336 87 207 0.9 1.7 0.00 0.00 0.00 59 1011.9
20260906025226 87 244 0.0 1.7 0.00 0.00 0.00 59 1011.8
20260906025136 87 303 1.7 1.7 0.00 0.00 0.00 59 1011.9
20260906025026 87 285 0.9 1.7 0.00 0.00 0.00 59 1011.8
20260906024826 87 342 0.0 2.6 0.00 0.00 0.00 58 1011.8
20260906024626 87 8 0.9 2.6 0.00 0.00 0.00 58 1011.9
20260906024526 87 234 1.7 2.6 0.00 0.00 0.00 58 1011.9
20260906024436 87 323 1.7 1.7 0.00 0.00 0.00 58 1011.6
20260906024326 87 220 0.9 1.7 0.00 0.00 0.00 58 1011.8
20260906024227 87 229 1.7 2.6 0.00 0.00 0.00 58 1011.8
20260906024126 87 245 0.9 2.6 0.00 0.00 0.00 58 1011.9
20260906023826 87 229 0.9 0.9 0.00 0.00 0.00 58 1011.7
20260906023027 87 326 0.0 1.7 0.00 0.00 0.00 58 1011.6
20260906022937 87 234 0.9 1.7 0.00 0.00 0.00 58 1011.6
20260906022636 87 350 0.9 0.9 0.00 0.00 0.00 58 1011.5
20260906022326 88 230 0.0 1.7 0.00 0.00 0.00 58 1011.5
20260906022226 88 323 1.7 1.7 0.00 0.00 0.00 58 1011.5
20260906022126 88 235 1.7 0.9 0.00 0.00 0.00 58 1011.5
20260906022026 88 315 0.9 0.9 0.00 0.00 0.00 58 1011.4
20260906021927 88 20 0.0 0.9 0.00 0.00 0.00 58 1011.3
20260906021826 88 277 0.9 1.7 0.00 0.00 0.00 58 1011.3
20260906021427 88 34 0.0 0.9 0.00 0.00 0.00 57 1011.3
20260906021327 88 292 0.9 1.7 0.00 0.00 0.00 57 1011.4
20260906021227 88 224 0.0 1.7 0.00 0.00 0.00 57 1011.2
20260906021126 88 279 0.9 0.9 0.00 0.00 0.00 57 1011.0
20260906020827 88 4 0.0 1.7 0.00 0.00 0.00 57 1011.1
20260906020727 88 319 0.9 1.7 0.00 0.00 0.00 57 1011.2
20260906020327 88 93 0.0 2.6 0.00 0.00 0.00 57 1011.0
20260906020227 88 7 0.9 2.6 0.00 0.00 0.00 57 1011.0
20260906020026 88 25 1.7 2.6 0.00 0.00 0.00 57 1011.1
20260906015826 88 19 0.0 2.6 0.00 0.00 0.00 56 1011.0
20260906015737 88 100 2.6 1.7 0.00 0.00 0.00 56 1011.3
20260906015627 88 93 0.9 1.7 0.00 0.00 0.00 56 1011.1
20260906015526 88 268 0.9 0.9 0.00 0.00 0.00 56 1011.0
20260906015326 88 320 0.0 2.6 0.00 0.00 0.00 56 1011.0
20260906015227 88 132 1.7 2.6 0.00 0.00 0.00 56 1011.0
20260906015137 88 113 1.7 2.6 0.00 0.00 0.00 56 1011.2
20260906015026 88 55 0.9 4.3 0.00 0.00 0.00 56 1011.0
20260906014926 88 92 0.0 2.6 0.00 0.00 0.00 56 1011.1
20260906014826 88 48 1.7 3.5 0.00 0.00 0.00 56 1011.1
20260906014727 88 320 0.9 3.5 0.00 0.00 0.00 56 1010.9
20260906014627 88 104 1.7 3.5 0.00 0.00 0.00 56 1011.1
20260906014526 88 100 1.7 1.7 0.00 0.00 0.00 56 1011.1
20260906014426 88 92 1.7 1.7 0.00 0.00 0.00 56 1011.1
20260906014227 89 222 0.0 4.3 0.00 0.00 0.00 56 1011.1
20260906014026 89 65 1.7 2.6 0.00 0.00 0.00 55 1011.1
20260906013827 89 57 1.7 3.5 0.00 0.00 0.00 55 1011.1
20260906013727 89 353 0.0 5.2 0.00 0.00 0.00 55 1010.8
20260906013626 89 138 2.6 5.2 0.00 0.00 0.00 55 1011.0
20260906013526 89 123 2.6 7.0 0.00 0.00 0.00 54 1011.2
20260906013426 89 67 2.6 7.0 0.00 0.00 0.00 54 1010.9
20260906013336 89 130 4.3 5.2 0.00 0.00 0.00 54 1010.9
20260906013226 89 95 1.7 5.2 0.00 0.00 0.00 54 1010.7
20260906013127 89 155 3.5 2.6 0.00 0.00 0.00 54 1010.6
20260906013026 89 145 1.7 2.6 0.00 0.00 0.00 54 1010.7
20260906012926 90 10 0.0 3.5 0.00 0.00 0.00 53 1010.7
20260906012826 90 106 1.7 6.1 0.00 0.00 0.00 53 1010.7
20260906012736 90 82 3.5 4.3 0.00 0.00 0.00 53 1010.6
20260906012625 90 106 2.6 4.3 0.00 0.00 0.00 52 1010.6
20260906012525 90 15 0.0 4.3 0.00 0.00 0.00 52 1010.6
20260906012426 90 82 1.7 4.3 0.00 0.00 0.00 52 1010.6
20260906012326 91 101 4.3 3.5 0.00 0.00 0.00 51 1010.5
20260906012225 91 60 1.7 4.3 0.00 0.00 0.00 51 1010.5
20260906012136 91 136 1.7 2.6 0.00 0.00 0.00 51 1010.5
20260906012026 91 75 1.7 3.5 0.00 0.00 0.00 51 1010.3
20260906011926 91 244 0.9 3.5 0.00 0.00 0.00 50 1010.4
20260906011826 91 207 0.0 1.7 0.00 0.00 0.00 50 1010.5
20260906011736 91 40 1.7 1.7 0.00 0.00 0.00 50 1010.2
20260906011536 92 269 0.0 3.5 0.00 0.00 0.00 50 1010.4
20260906011327 92 96 0.9 2.6 0.00 0.00 0.00 49 1010.2
20260906011225 92 107 2.6 2.6 0.00 0.00 0.00 49 1010.1
20260906011125 92 73 0.9 3.5 0.00 0.00 0.00 49 1010.2
20260906011025 92 251 1.7 3.5 0.00 0.00 0.00 49 1010.0
20260906010926 92 186 0.0 3.5 0.00 0.00 0.00 49 1010.3
20260906010836 92 119 1.7 4.3 0.00 0.00 0.00 49 1010.1
20260906010725 92 1 0.0 4.3 0.00 0.00 0.00 49 1010.2
20260906010635 92 113 3.5 3.5 0.00 0.00 0.00 48 1010.3
20260906010526 92 93 2.6 3.5 0.00 0.00 0.00 48 1010.2
20260906010426 93 52 2.6 2.6 0.00 0.00 0.00 48 1010.2
20260906010227 93 160 1.7 6.1 0.00 0.00 0.00 48 1009.9
20260906010126 93 76 3.5 4.3 0.00 0.00 0.00 48 1010.0
20260906010037 93 150 1.7 2.6 0.00 0.00 0.00 48 1009.8
20260906005927 93 65 2.6 1.7 0.00 0.00 0.00 48 1009.9
20260906005726 93 247 0.0 3.5 0.00 0.00 0.00 48 1009.9
20260906005626 93 242 1.7 3.5 0.00 0.00 0.00 48 1009.9
20260906005426 93 171 0.0 2.6 0.00 0.00 0.00 48 1009.7
20260906005327 94 118 1.7 2.6 0.00 0.00 0.00 47 1009.8
20260906005226 94 244 0.9 4.3 0.00 0.00 0.00 47 1009.7
20260906005126 94 50 1.7 4.3 0.00 0.00 0.00 47 1009.8
20260906005027 94 174 1.7 3.5 0.00 0.00 0.00 47 1009.9
20260906004927 94 40 1.7 3.5 0.00 0.00 0.00 46 1009.9
20260906004727 94 202 1.7 4.3 0.00 0.00 0.00 46 1009.8
20260906004626 94 63 0.0 5.2 0.00 0.00 0.00 45 1009.8
20260906004527 94 207 1.7 5.2 0.00 0.00 0.00 45 1009.8
20260906004426 95 104 2.6 5.2 0.00 0.00 0.00 44 1009.7
20260906004327 95 127 3.5 5.2 0.00 0.00 0.00 44 1009.6
20260906004226 95 246 0.9 2.6 0.00 0.00 0.00 43 1009.7
20260906004126 95 131 1.7 1.7 0.00 0.00 0.00 43 1009.7
20260906003736 95 318 0.0 1.7 0.00 0.00 0.00 42 1009.4
20260906003527 95 257 0.9 1.7 0.00 0.00 0.00 42 1009.5
20260906002936 95 110 0.0 2.6 0.00 0.00 0.00 42 1009.5
20260906002836 95 320 0.9 1.7 0.00 0.00 0.00 42 1009.6
20260906002626 96 252 0.0 1.7 0.00 0.00 0.00 42 1009.5
20260906002527 96 221 1.7 1.7 0.00 0.00 0.00 42 1009.5
20260906002427 96 278 1.7 1.7 0.00 0.00 0.00 42 1009.6
20260906002327 96 123 1.7 1.7 0.00 0.00 0.00 42 1009.8
20260906002226 96 283 0.9 1.7 0.00 0.00 0.00 42 1009.6
20260906001526 96 125 0.0 2.6 0.00 0.00 0.00 41 1009.5
20260906001426 96 155 0.9 1.7 0.00 0.00 0.00 41 1009.7
20260906001326 96 208 1.7 1.7 0.00 0.00 0.00 41 1009.9
20260906001226 96 144 0.9 1.7 0.00 0.00 0.00 41 1009.7
20260906000926 96 89 0.0 2.6 0.00 0.00 0.00 40 1009.8
20260906000826 96 41 0.9 2.6 0.00 0.00 0.00 40 1009.6
20260906000626 96 22 0.0 1.7 0.00 0.00 0.00 40 1009.5
20260906000526 96 106 1.7 3.5 0.00 0.00 0.00 40 1009.5
20260906000436 96 178 0.9 3.5 0.00 0.00 0.00 40 1009.7
20260906000326 96 39 1.7 2.6 0.00 0.00 0.00 40 1009.7
20260906000226 96 114 2.6 1.7 0.00 0.00 0.00 40 1009.6
20260906000035 96 184 0.0 1.7 0.00 0.00 0.00 40 1009.2
20260905235925 96 63 0.9 1.7 0.00 0.00 0.00 40 1009.5
20260905235826 96 226 1.7 1.7 0.00 0.00 0.00 40 1009.6
20260905235735 96 187 0.0 1.7 0.00 0.00 0.00 40 1009.5
20260905235626 96 91 0.9 1.7 0.00 0.00 0.00 40 1009.6
20260905235426 96 352 0.0 1.7 0.00 0.00 0.00 40 1009.2
20260905235325 96 71 1.7 1.7 0.00 0.00 0.00 39 1009.3